GFSNGP_prec_cloud_174.txt.gz
Cloud_Cover
100 100 100 57 100 100 100 100 99 7 39 100 100 100 100 98 100 100 100 100 100 100 86 46 38 16 100 100 85 60 67 78 59 39 10 77 99 62 22 66 100 100 100 12
100 100 100 13 86 100 100 100 100 73 28 100 86 41 100 100 99 100 100 100 100 100 72 55 41 89 64 98 63 96 79 81 60 12 93 100 100 100 100 100 100 99 5 5
100 100 100 52 100 100 100 100 100 93 100 100 100 100 100 100 100 100 100 100 98 87 20 12 29 87 100 67 98 90 98 52 77 71 96 98 73 53 21 5 5 5 5 5
100 100 100 67 100 100 100 100 100 100 100 100 100 100 100 100 100 100 100 97 6 24 5 5 70 99 100 99 79 92 70 62 79 60 6 4 5 5 5 5 5 5 5 5
100 98 36 99 100 100 100 100 100 100 100 100 100 100 100 100 100 93 17 5 4 5 5 35 93 100 100 67 44 6 5 6 0 0 0 4 5 5 5 5 5 5 1 5
100 100 100 100 100 100 100 100 100 100 100 100 100 100 100 83 6 5 5 0 4 23 78 100 100 100 33 42 5 5 0 0 0 0 0 0 0 0 0 3 4 5 5 3
100 100 98 100 100 100 100 100 100 100 100 97 87 30 5 5 5 2 0 3 5 6 99 100 100 70 12 5 5 5 4 0 0 0 0 0 0 0 5 4 5 5 5 4
100 100 100 100 100 100 100 100 100 100 100 91 14 32 77 91 12 1 9 11 12 94 100 100 99 26 13 5 5 5 5 5 5 5 0 2 5 5 4 5 5 5 5 22
100 100 100 100 100 100 100 100 100 100 39 85 99 99 100 68 63 11 36 99 92 88 100 100 79 46 97 57 6 5 5 5 5 5 21 5 5 5 27 10 39 91 93 94
100 100 100 100 100 100 100 100 100 86 74 89 69 85 99 71 83 67 98 100 100 100 67 32 20 100 100 49 6 9 5 7 81 50 88 83 66 69 53 85 100 88 88 99
100 100 100 100 100 100 100 100 100 100 100 92 68 40 36 37 88 100 100 100 100 100 84 69 46 100 100 99 32 29 13 5 5 18 64 79 47 65 43 74 28 50 51 5
100 100 100 100 100 82 99 100 94 99 100 80 39 94 69 100 58 100 100 100 100 100 100 100 82 100 100 99 59 56 21 23 48 48 49 47 5 20 11 6 8 5 5 5
100 100 100 100 100 80 100 100 100 15 12 84 69 100 62 61 73 100 100 100 100 100 95 87 100 100 100 100 99 63 45 44 60 62 67 87 72 12 14 54 64 27 56 30
66 49 100 100 100 78 100 100 100 90 65 69 100 100 100 72 86 100 100 100 100 99 100 94 99 85 100 100 100 100 68 46 71 78 57 62 65 68 78 85 95 69 100 99
21 85 100 100 100 72 91 60 100 61 50 84 100 100 85 86 86 98 100 91 100 100 91 98 98 100 100 100 100 100 100 100 100 100 73 65 73 90 100 100 100 100 100 100
22 5 81 100 85 89 36 70 86 78 96 100 100 100 99 89 85 31 97 83 100 100 100 100 67 100 100 100 100 100 100 100 100 100 100 95 76 97 100 100 100 100 100 80
5 14 85 50 76 100 100 49 54 72 92 100 100 100 100 92 100 91 82 90 100 100 100 100 100 100 100 100 100 100 100 100 100 100 98 89 100 100 100 100 100 100 100 100
29 23 74 99 100 100 94 80 91 87 100 100 100 100 100 100 100 100 100 100 100 100 100 100 100 100 100 100 100 100 100 100 100 100 100 100 100 100 100 100 100 100 100 100
100 100 100 100 100 100 91 97 98 100 100 100 100 100 100 100 100 97 100 100 100 100 100 100 100 100 100 100 100 100 100 100 100 100 100 100 100 100 100 100 100 100 100 100
100 100 100 100 100 100 100 100 100 100 100 100 100 100 100 100 100 100 100 100 99 100 100 100 100 100 100 100 100 100 100 100 100 100 100 100 100 100 100 100 100 100 100 100
100 100 100 100 100 100 100 100 100 100 100 100 100 100 100 100 100 100 100 100 100 100 100 100 100 100 100 100 100 100 100 100 100 100 100 100 100 100 100 100 100 100 100 100
100 100 100 100 100 100 100 100 100 100 100 100 100 100 100 100 100 100 100 100 100 100 100 100 100 100 100 100 100 100 100 100 100 100 100 100 100 100 100 100 100 100 100 100
100 100 100 100 100 100 100 100 100 100 100 100 100 100 100 100 100 100 100 100 100 100 100 100 100 100 100 100 100 100 100 100 100 100 100 100 100 100 100 100 100 100 100 100
100 100 100 100 100 100 100 100 100 91 96 100 100 100 100 100 100 100 100 100 100 100 100 100 100 100 100 100 100 100 100 100 100 100 100 100 100 100 100 100 100 100 100 100
100 100 100 100 100 100 99 100 99 96 68 45 61 84 99 100 100 100 100 100 100 100 100 100 100 100 100 100 100 100 100 100 100 100 100 100 100 100 100 100 100 100 100 100
100 100 100 100 100 83 81 89 86 77 78 74 87 90 97 99 97 99 100 100 100 100 100 100 100 100 100 100 100 100 100 100 100 100 100 100 100 100 100 99 100 100 100 100
100 100 100 95 90 98 100 91 96 89 91 89 90 94 95 100 88 92 94 93 100 100 100 100 100 100 100 100 100 100 100 100 100 100 100 100 100 100 98 99 100 100 100 100

GFSNGP_prec_cloud_177.txt.gz
Cloud_Cover
77 100 100 97 98 100 100 100 99 2 86 99 100 100 100 100 100 100 100 100 100 100 100 100 100 100 100 100 57 86 58 27 60 98 49 5 7 22 26 19 100 100 100 86
5 16 100 93 100 100 100 100 98 5 4 100 100 100 100 100 100 100 100 100 100 100 100 100 100 66 69 98 66 34 100 78 91 76 76 68 98 99 64 69 90 43 5 5
41 38 99 95 91 100 100 100 100 43 34 100 100 100 100 100 100 100 100 100 100 100 100 96 98 96 90 47 38 98 95 96 100 90 84 90 38 23 4 2 4 5 5 5
93 100 97 36 100 100 100 100 100 100 100 100 100 100 100 100 100 100 100 100 100 100 100 86 45 11 5 24 82 100 99 94 99 66 11 5 2 0 0 0 0 0 0 5
100 100 57 68 100 100 100 100 100 99 100 59 97 100 100 100 100 100 100 100 100 66 38 58 47 38 36 50 100 100 78 6 5 5 5 5 5 0 0 4 5 0 0 0
100 100 100 98 100 100 98 100 100 100 100 100 95 100 70 100 100 100 85 16 5 5 15 62 49 89 85 91 100 45 48 5 5 1 2 5 5 5 0 0 0 5 2 0
95 88 78 100 100 100 100 100 100 100 100 100 100 100 100 100 66 7 5 5 5 6 27 55 8 75 90 99 63 50 5 1 0 0 0 0 2 3 0 0 4 5 5 5
54 100 100 100 100 100 100 100 100 100 100 100 100 100 100 93 89 13 5 6 37 65 49 54 90 100 100 96 94 9 5 3 2 1 3 3 0 0 0 2 5 5 5 5
97 100 100 100 100 100 100 100 100 100 100 100 100 95 38 6 16 28 75 79 63 99 96 89 100 100 100 74 73 29 5 5 5 5 5 5 5 5 5 5 5 29 73 78
100 100 100 100 100 100 100 100 100 100 100 98 82 19 27 6 6 5 54 96 100 100 100 100 100 100 94 69 66 30 40 6 41 6 5 6 25 9 5 5 6 73 86 85
78 100 100 100 100 100 100 100 100 100 100 50 68 80 36 5 5 5 36 100 100 100 100 100 100 100 99 100 100 98 31 26 56 40 8 5 5 12 9 5 5 5 7 9
100 100 86 100 100 100 100 100 100 100 100 98 88 98 67 28 14 56 26 100 100 100 100 100 100 100 100 100 100 100 100 62 77 85 69 24 9 8 45 27 17 28 49 58
100 97 87 100 100 100 100 100 100 100 100 100 100 61 40 33 95 100 97 100 100 100 100 100 100 100 100 100 100 100 100 100 100 81 68 65 39 20 69 93 60 100 100 88
11 89 100 100 100 100 100 100 100 100 100 100 100 5 37 74 100 100 100 100 100 100 100 100 100 100 100 100 100 98 100 100 100 100 100 100 97 97 100 100 100 99 100 100
6 90 100 100 100 98 98 100 100 99 100 79 79 30 72 73 100 100 98 100 100 100 100 100 100 100 100 100 89 57 100 100 100 100 100 100 100 100 100 100 100 93 100 98
0 1 14 44 50 68 100 100 92 59 66 35 9 62 71 50 100 100 100 100 100 100 99 100 100 100 100 100 99 100 100 100 100 100 100 100 100 100 100 100 100 100 100 69
5 5 65 100 100 90 54 72 76 20 73 60 44 71 95 100 99 95 98 100 100 100 100 100 100 100 100 100 100 100 100 100 100 100 100 100 100 100 100 100 100 100 99 68
51 85 100 100 100 100 100 93 98 96 61 56 76 97 100 100 100 100 100 100 100 100 100 100 100 100 100 100 100 100 100 100 100 100 100 100 100 100 100 100 100 100 100 100
100 100 100 99 100 100 100 99 100 87 100 98 82 86 100 100 100 100 100 100 100 100 100 100 100 100 100 100 100 100 100 100 100 100 100 100 100 100 100 100 100 100 100 100
100 100 100 100 100 100 100 98 73 100 100 100 94 99 100 100 100 100 100 100 100 100 100 100 100 100 100 100 100 100 100 100 100 100 100 100 100 100 100 100 100 100 100 100
100 100 100 100 100 100 100 100 100 100 94 99 100 100 100 100 100 100 100 100 100 100 100 100 100 100 100 100 100 100 100 100 100 100 100 100 100 100 100 100 100 100 100 100
100 100 100 100 100 100 100 100 100 98 94 100 100 99 96 87 100 100 100 100 100 100 100 100 100 100 100 100 100 100 100 100 100 100 100 100 100 100 100 100 100 100 100 100
100 100 100 100 100 100 100 100 100 100 100 98 100 97 97 88 100 100 100 100 100 100 100 100 100 100 100 100 100 100 100 100 100 100 100 100 100 100 100 100 100 100 100 100
100 100 100 100 100 100 100 100 97 100 84 100 100 97 100 100 100 100 100 100 100 100 100 100 100 100 100 100 100 100 100 100 100 100 100 100 100 100 100 100 100 100 100 100
100 100 100 100 100 100 100 100 100 87 80 75 94 99 100 95 94 95 98 100 100 100 100 100 100 100 100 100 100 100 100 100 100 100 100 100 100 100 100 100 100 100 100 100
100 100 100 100 100 100 100 100 100 89 89 90 91 94 87 74 67 66 65 69 70 71 86 94 99 100 100 100 100 100 100 100 100 100 100 100 100 100 100 100 100 100 100 100
100 100 100 100 100 100 100 100 100 94 88 93 94 95 84 82 79 60 61 60 50 67 86 88 88 84 94 99 100 100 100 100 100 100 100 100 100 100 100 100 100 100 100 100

GFSNGP_prec_cloud_183.txt.gz
Cloud_Cover
100 92 100 100 100 100 100 100 100 63 96 83 70 100 94 7 92 34 87 100 84 100 88 100 100 100 100 100 100 100 100 100 100 100 100 100 100 97 11 5 5 5 18 98
100 98 100 100 41 100 100 100 100 100 100 85 100 100 100 100 100 88 100 100 94 20 96 8 100 100 100 100 100 100 100 100 100 100 100 100 70 100 90 77 50 66 100 100
100 100 100 87 100 11 100 100 100 100 8 100 100 98 100 100 100 100 100 100 100 7 52 34 99 100 100 100 100 100 100 100 100 100 100 100 100 94 100 99 93 50 25 58
100 100 95 66 68 75 88 23 81 100 98 100 52 100 100 100 100 100 100 34 67 100 100 100 100 100 100 100 100 100 100 100 100 89 100 85 99 97 100 11 0 0 1 4
100 100 98 61 100 91 100 8 98 100 100 100 100 100 100 100 100 100 100 99 99 98 100 100 100 100 100 100 100 100 100 100 100 85 100 100 100 60 4 0 0 0 0 5
100 100 99 100 100 42 14 10 27 92 55 85 91 100 100 100 100 100 100 100 100 100 100 100 100 100 100 100 100 100 100 100 100 100 100 100 92 5 0 0 0 0 0 0
100 100 96 100 76 9 16 40 82 100 81 100 100 100 100 100 100 100 100 100 100 100 100 100 100 100 100 100 100 100 100 100 100 100 100 100 18 5 1 0 0 0 1 0
100 100 86 100 58 13 43 79 52 99 100 100 100 100 100 100 100 100 100 100 100 100 100 100 100 100 100 100 100 100 100 100 100 100 100 38 5 5 5 2 4 4 3 5
100 100 99 55 87 15 100 100 97 100 100 82 100 100 100 100 100 100 100 100 100 100 77 68 52 93 100 100 100 100 100 100 100 100 90 72 35 14 5 5 5 5 5 5
86 93 100 82 6 68 100 100 98 76 100 100 100 100 100 100 100 100 100 100 85 6 6 50 40 95 100 100 100 100 100 100 100 100 100 100 68 33 26 31 32 6 5 5
96 100 100 100 87 7 99 100 100 100 100 100 100 100 100 100 100 99 96 23 9 8 51 60 54 100 100 100 100 100 100 100 100 100 100 93 75 99 100 95 71 56 69 55
100 100 98 78 6 5 92 100 100 100 100 100 100 100 100 100 100 100 100 79 30 87 100 96 82 96 100 100 100 100 100 100 100 100 100 100 69 83 100 96 88 100 94 99
93 96 99 100 5 5 59 100 100 100 100 100 100 100 100 100 97 86 100 100 90 100 100 100 100 100 100 100 100 100 100 100 100 100 100 100 100 100 100 100 100 100 100 100
34 100 76 100 5 5 8 100 100 100 100 100 100 100 100 100 100 89 100 100 98 76 100 100 100 100 100 100 100 100 100 100 100 100 100 100 100 100 100 100 100 100 100 100
100 100 91 16 4 5 5 93 100 100 100 100 100 100 62 50 66 100 100 100 84 100 90 94 100 100 100 100 100 100 100 100 100 100 100 100 100 100 100 100 100 100 100 100
50 8 5 5 5 29 98 99 44 87 100 100 100 99 62 86 96 93 96 73 87 100 98 96 87 100 99 99 100 100 100 100 100 100 100 100 100 100 100 100 100 100 100 100
79 20 13 90 93 99 100 95 73 97 84 87 100 81 91 85 85 82 74 100 98 100 100 100 100 100 100 100 100 100 98 100 100 100 100 100 100 100 100 100 100 100 100 100
7 85 86 55 19 64 99 100 49 59 84 73 83 80 100 100 100 99 99 99 100 100 100 100 100 100 100 100 100 100 100 100 100 100 100 100 100 100 100 100 100 100 100 100
74 98 100 96 78 98 96 100 100 90 97 72 93 100 100 100 100 100 100 100 100 100 100 100 100 100 100 100 100 100 100 100 100 100 100 100 100 100 100 100 100 100 100 100
100 100 100 100 100 100 100 100 100 100 100 100 100 100 100 100 100 100 100 100 100 100 100 100 100 100 100 100 100 100 100 100 100 100 100 100 100 100 100 100 100 100 100 100
100 100 100 100 100 100 100 100 100 100 100 100 100 100 100 100 100 100 100 100 100 100 100 100 100 100 100 100 100 100 100 100 100 100 100 100 100 100 100 100 100 100 100 100
100 100 100 100 100 100 100 100 100 100 100 100 100 100 91 87 65 60 82 94 100 100 100 100 100 100 100 100 100 100 100 100 100 100 100 100 100 100 100 100 100 100 100 100
100 100 100 100 100 100 100 100 100 100 100 100 100 100 100 100 100 100 98 69 67 70 69 95 100 100 100 100 100 100 100 100 100 100 100 100 100 100 100 100 100 100 100 100
100 100 100 100 100 100 100 100 100 100 100 100 100 100 100 100 100 100 100 100 81 71 78 73 80 75 76 80 92 96 99 100 100 100 100 100 100 100 100 100 100 100 100 100
100 100 100 100 100 100 100 100 100 100 100 100 100 100 100 100 100 100 100 100 98 100 100 95 75 77 92 100 100 100 100 100 100 100 100 100 100 100 100 100 100 100 100 100
100 100 100 100 100 100 100 100 100 100 100 100 100 100 100 100 100 100 100 100 100 98 100 100 100 100 100 100 100 100 100 100 99 100 100 100 100 100 100 100 99 100 100 100
100 100 100 100 100 100 100 100 100 100 100 100 100 100 100 100 100 100 100 100 100 100 100 100 100 100 100 100 100 100 100 100 96 100 100 100 100 100 100 100 100 100 100 100

GFSNGP_prec_cloud_186.txt.gz
Cloud_Cover
100 95 73 97 98 43 100 100 100 100 100 100 100 100 64 10 4 0 3 100 100 6 88 100 100 100 100 100 100 100 52 93 100 100 100 100 100 100 100 100 100 100 99 35
46 90 100 100 56 100 100 100 100 100 100 100 62 3 4 37 18 5 33 98 96 90 76 100 100 100 100 100 99 64 60 100 100 100 100 100 100 100 100 100 100 99 54 92
100 100 100 100 100 100 100 100 100 95 17 5 0 10 11 99 5 95 46 100 100 98 100 100 100 98 74 69 100 100 100 100 100 100 100 100 100 100 100 98 75 81 100 91
100 100 100 100 100 100 100 2 35 58 16 51 19 4 4 31 99 100 100 100 51 62 100 42 100 100 93 89 100 100 100 100 100 100 100 100 100 100 89 90 100 100 27 5
100 100 100 9 100 99 100 6 100 91 5 0 5 5 51 90 100 100 100 100 100 100 100 100 100 100 100 100 100 100 100 100 100 100 100 100 100 100 100 99 100 10 1 4
100 100 78 96 100 100 73 100 98 9 4 9 35 33 100 100 100 100 100 100 100 100 100 100 100 100 100 100 100 100 100 100 100 100 100 96 100 100 100 100 36 5 0 0
100 100 92 100 93 98 100 16 21 4 5 92 72 24 100 100 100 100 100 100 99 100 100 100 100 100 100 100 100 100 100 100 100 100 100 100 100 100 100 100 5 5 2 0
64 100 100 99 100 94 87 93 10 4 90 86 89 88 94 100 100 98 100 100 100 100 100 100 100 100 100 100 100 100 100 100 100 100 100 100 100 100 100 73 13 5 5 5
100 91 100 99 100 100 65 73 99 94 92 100 100 100 100 100 100 100 100 100 100 100 100 100 100 100 100 100 99 100 100 100 100 100 100 100 100 100 99 62 19 22 6 5
97 67 15 7 29 95 95 96 6 94 100 85 99 100 100 100 100 100 100 100 100 100 100 100 93 28 57 99 85 100 100 100 100 100 100 100 100 100 96 58 65 71 59 59
94 100 100 100 100 100 100 36 9 98 100 100 100 100 100 100 100 100 100 100 100 100 88 58 67 60 100 68 94 100 100 100 100 100 100 100 100 100 100 87 82 98 84 75
23 99 98 89 100 100 99 100 23 92 100 100 100 100 100 100 100 100 100 100 100 100 54 20 76 100 100 100 97 100 100 100 100 100 100 100 100 100 100 100 100 100 100 100
98 100 100 100 100 100 99 94 29 29 100 100 100 99 100 100 100 100 100 100 99 100 100 99 96 62 100 100 100 100 100 100 100 100 100 100 100 100 100 100 100 100 100 100
100 100 100 100 100 100 96 9 35 55 100 100 100 100 100 100 100 100 100 100 98 100 99 100 100 100 96 100 100 100 100 100 100 100 100 100 100 100 100 100 100 100 100 100
100 100 100 100 100 26 30 19 48 100 81 100 100 100 100 99 100 94 63 85 100 100 100 72 100 100 99 100 100 100 100 100 100 100 100 100 100 100 100 100 100 100 100 100
100 100 100 100 100 100 55 56 100 48 22 100 92 100 100 100 68 95 100 25 63 98 100 100 100 100 100 100 100 100 100 100 100 95 94 100 100 100 100 100 100 100 100 100
100 100 100 100 98 27 77 100 7 100 32 39 100 100 91 24 52 42 57 38 96 100 100 100 100 100 100 100 100 100 100 100 100 100 100 100 100 100 100 100 100 100 100 100
97 91 89 21 38 52 39 19 96 95 83 21 99 100 100 100 100 91 86 79 100 100 100 100 100 100 100 100 100 100 100 100 100 100 100 100 100 100 100 100 100 100 100 100
45 87 99 77 73 99 95 89 83 99 89 85 100 100 100 100 100 100 100 100 100 100 100 100 100 100 100 100 100 100 100 100 100 100 100 100 100 100 100 100 100 100 100 100
100 100 100 95 100 100 100 100 100 100 100 100 100 100 100 100 100 100 100 100 100 100 100 100 100 100 100 100 100 100 100 100 100 100 100 100 100 100 100 100 100 100 100 100
100 100 100 100 100 100 100 100 100 100 100 100 100 100 100 100 100 100 100 100 100 83 97 93 100 100 100 100 100 100 100 100 100 100 100 100 100 100 100 100 100 100 100 100
100 100 100 100 100 100 100 100 100 100 100 100 100 100 100 100 100 100 100 100 100 100 94 95 100 100 100 100 100 100 100 100 100 100 100 100 100 100 100 100 100 100 100 100
100 100 100 100 100 100 100 100 100 100 100 100 100 100 100 100 100 100 100 100 100 100 90 74 61 57 65 74 76 79 94 100 100 100 100 100 100 100 96 95 96 99 100 100
100 100 100 100 100 100 100 100 100 100 100 100 100 100 100 100 100 100 100 100 100 100 100 99 83 28 35 96 100 100 100 100 100 100 95 98 96 95 99 100 100 100 100 100
100 100 100 100 100 100 100 100 100 100 100 100 100 100 100 100 100 100 100 100 100 100 100 100 100 96 97 100 100 100 100 100 100 100 99 100 100 99 99 99 100 100 99 99
100 100 100 100 100 100 100 100 100 100 100 100 100 100 100 100 100 100 100 100 100 100 100 100 100 100 100 100 100 100 100 100 99 98 98 100 100 100 100 100 100 100 100 100
100 100 100 100 100 100 100 100 100 100 100 100 100 100 100 100 100 100 100 100 100 100 100 99 98 99 100 100 100 99 100 96 88 100 100 100 99 100 100 100 100 100 100 100